UTA205 UUWW-ULMM

Flight info

Callsign UTA205
Flight time N/A
Altitude 33000
Route K0861F330 RILPO/K0872F350 T753 DEGOP/K0870F340 T747 MOVIT P65 PILAN T693 ASGOR
Aircraft B738/M-SDE2E3FGHIRWXY/LB1

Departure

Time 2026-04-29 05:37
Airport Vnukovo International Airport (UUWW)

Arrival

Time N/A
Airport Emperor Nicholas II Murmansk Airport (ULMM)
Time Latitude Longitude Altitude Speed Heading
2026-04-29 05:27 55.60270 37.28476 679 ft 0 kts 284°
2026-04-29 05:28 55.60267 37.28496 678 ft 2 kts 284°
2026-04-29 05:28 55.60264 37.28516 676 ft 2 kts 284°
2026-04-29 05:28 55.60261 37.28536 679 ft 2 kts 284°
2026-04-29 05:29 55.60259 37.28556 678 ft 2 kts 284°
2026-04-29 05:29 55.60256 37.28576 676 ft 2 kts 284°
2026-04-29 05:29 55.60253 37.28596 678 ft 2 kts 284°
2026-04-29 05:29 55.60250 37.28616 678 ft 2 kts 284°
2026-04-29 05:30 55.60248 37.28629 678 ft 2 kts 262°
2026-04-29 05:30 55.60252 37.28649 678 ft 2 kts 223°
2026-04-29 05:30 55.60261 37.28662 678 ft 2 kts 213°
2026-04-29 05:30 55.60270 37.28672 678 ft 0 kts 197°
2026-04-29 05:34 55.60247 37.28664 678 ft 9 kts 179°
2026-04-29 05:35 55.60176 37.28770 676 ft 17 kts 134°
2026-04-29 05:35 55.60078 37.28884 678 ft 17 kts 165°
2026-04-29 05:35 55.59951 37.28939 682 ft 21 kts 165°
2026-04-29 05:35 55.59813 37.28993 687 ft 14 kts 187°
2026-04-29 05:36 55.59783 37.28938 691 ft 0 kts 248°
2026-04-29 05:36 55.59781 37.28929 684 ft 10 kts 248°
2026-04-29 05:36 55.59661 37.28397 680 ft 81 kts 248°
2026-04-29 05:37 55.59367 37.27085 668 ft 146 kts 249°
2026-04-29 05:37 55.58986 37.25214 1013 ft 163 kts 252°
2026-04-29 05:37 55.58509 37.23337 1354 ft 176 kts 240°
2026-04-29 05:37 55.57769 37.21538 1672 ft 188 kts 231°
2026-04-29 05:38 55.56870 37.19740 1807 ft 203 kts 234°
2026-04-29 05:38 55.56104 37.17645 2108 ft 206 kts 245°
2026-04-29 05:38 55.55491 37.15311 2346 ft 219 kts 252°
2026-04-29 05:38 55.55080 37.12608 2556 ft 230 kts 264°
2026-04-29 05:39 55.54944 37.09792 3060 ft 231 kts 271°
2026-04-29 05:39 55.54979 37.07027 3770 ft 225 kts 278°
2026-04-29 05:39 55.55579 37.04603 4687 ft 209 kts 313°
2026-04-29 05:39 55.56725 37.03230 5568 ft 197 kts 334°
2026-04-29 05:40 55.58025 37.02608 6353 ft 197 kts 353°
2026-04-29 05:40 55.59421 37.02594 7060 ft 213 kts 356°
2026-04-29 05:40 55.60978 37.02589 7200 ft 229 kts 356°
2026-04-29 05:40 55.62628 37.02591 7591 ft 241 kts 356°
2026-04-29 05:41 55.64281 37.02525 7991 ft 240 kts 347°
2026-04-29 05:41 55.65906 37.01505 8044 ft 258 kts 334°
2026-04-29 05:41 55.67641 37.00171 8052 ft 286 kts 335°
2026-04-29 05:41 55.69535 36.98763 8027 ft 294 kts 335°
2026-04-29 05:42 55.71381 36.97409 8008 ft 281 kts 335°
2026-04-29 05:42 55.73152 36.96112 8006 ft 269 kts 335°
2026-04-29 05:42 55.74833 36.94854 8008 ft 260 kts 334°
2026-04-29 05:42 55.76497 36.93576 8013 ft 259 kts 334°
2026-04-29 05:43 55.78117 36.92333 8019 ft 255 kts 335°
2026-04-29 05:43 55.79765 36.91070 8023 ft 255 kts 334°
2026-04-29 05:43 55.81205 36.89303 8018 ft 253 kts 310°
2026-04-29 05:43 55.82092 36.86694 8153 ft 249 kts 292°
2026-04-29 05:44 55.82549 36.83710 8176 ft 251 kts 284°
2026-04-29 05:44 55.82887 36.80661 8185 ft 252 kts 283°
2026-04-29 05:44 55.83225 36.77601 8237 ft 251 kts 283°
2026-04-29 05:44 55.83572 36.74546 8240 ft 252 kts 284°
2026-04-29 05:45 55.83921 36.71495 8325 ft 251 kts 284°
2026-04-29 05:45 55.84272 36.68450 8341 ft 252 kts 284°
2026-04-29 05:45 55.84625 36.65400 8360 ft 252 kts 284°
2026-04-29 05:45 55.84980 36.62348 8401 ft 251 kts 284°
2026-04-29 05:46 55.85333 36.59289 8412 ft 252 kts 284°
2026-04-29 05:46 55.85684 36.56263 8422 ft 252 kts 284°
2026-04-29 05:46 55.86038 36.53207 8454 ft 252 kts 284°
2026-04-29 05:46 55.86493 36.50202 8443 ft 251 kts 298°
2026-04-29 05:47 55.87602 36.47860 8482 ft 248 kts 324°
2026-04-29 05:47 55.89160 36.46562 8488 ft 250 kts 344°
2026-04-29 05:47 55.90907 36.46393 8499 ft 255 kts
2026-04-29 05:47 55.92671 36.46838 8516 ft 256 kts
2026-04-29 05:48 55.94437 36.47333 8524 ft 257 kts
2026-04-29 05:48 55.96198 36.47833 8525 ft 256 kts
2026-04-29 05:48 55.97956 36.48319 8532 ft 256 kts
2026-04-29 05:48 55.99716 36.48799 8540 ft 257 kts
2026-04-29 05:49 56.01489 36.49279 8553 ft 258 kts
2026-04-29 05:49 56.03256 36.49758 8737 ft 253 kts
2026-04-29 05:49 56.04972 36.50223 8968 ft 247 kts
2026-04-29 05:49 56.06664 36.50677 9115 ft 244 kts
2026-04-29 05:50 56.08331 36.51128 9268 ft 240 kts
2026-04-29 05:50 56.09927 36.51992 9408 ft 241 kts 21°
2026-04-29 05:50 56.11417 36.53313 9561 ft 237 kts 21°
2026-04-29 05:50 56.12908 36.54600 9664 ft 238 kts 21°
2026-04-29 05:51 56.14421 36.55888 9773 ft 241 kts 20°
2026-04-29 05:51 56.15948 36.57172 9876 ft 243 kts 20°
2026-04-29 05:51 56.17459 36.58440 9972 ft 243 kts 20°
2026-04-29 05:51 56.18999 36.59735 10070 ft 241 kts 20°
2026-04-29 05:52 56.20497 36.61001 10168 ft 241 kts 24°
2026-04-29 05:52 56.21736 36.63050 10228 ft 251 kts 57°
2026-04-29 05:52 56.22278 36.66043 10351 ft 255 kts 78°
2026-04-29 05:52 56.22461 36.69220 10458 ft 255 kts 81°
2026-04-29 05:53 56.22602 36.72383 10550 ft 253 kts 82°
2026-04-29 05:53 56.22737 36.75527 10651 ft 252 kts 81°
2026-04-29 05:53 56.22876 36.78659 10758 ft 251 kts 81°
2026-04-29 05:53 56.23013 36.81773 10845 ft 250 kts 81°
2026-04-29 05:54 56.23158 36.84878 10949 ft 248 kts 81°
2026-04-29 05:54 56.23304 36.87958 11036 ft 246 kts 81°
2026-04-29 05:54 56.23449 36.91016 11126 ft 245 kts 81°
2026-04-29 05:54 56.23591 36.94057 11203 ft 244 kts 81°
2026-04-29 05:55 56.23735 36.97097 11262 ft 244 kts 81°
2026-04-29 05:55 56.23879 37.00143 11312 ft 245 kts 81°
2026-04-29 05:55 56.24026 37.03195 11349 ft 245 kts 81°
2026-04-29 05:55 56.24169 37.06252 11393 ft 245 kts 81°
2026-04-29 05:56 56.24311 37.09309 11435 ft 246 kts 81°
2026-04-29 05:56 56.24453 37.12370 11475 ft 246 kts 81°
2026-04-29 05:56 56.24595 37.15454 11493 ft 249 kts 81°
2026-04-29 05:56 56.24740 37.18575 11496 ft 252 kts 81°
2026-04-29 05:57 56.24887 37.21742 11391 ft 260 kts 81°
2026-04-29 05:57 56.25041 37.25057 11168 ft 272 kts 80°
2026-04-29 05:57 56.25598 37.28317 10845 ft 277 kts 52°
2026-04-29 05:57 56.27036 37.30666 10630 ft 290 kts 25°
2026-04-29 05:58 56.28899 37.32184 10804 ft 298 kts 20°
2026-04-29 05:58 56.30826 37.33626 10925 ft 300 kts 20°
2026-04-29 05:58 56.32723 37.35054 11060 ft 299 kts 20°
2026-04-29 05:58 56.34636 37.36520 11181 ft 299 kts 20°
2026-04-29 05:59 56.36547 37.38001 11316 ft 299 kts 21°
2026-04-29 05:59 56.38459 37.39493 11450 ft 299 kts 21°
2026-04-29 05:59 56.40217 37.41530 11560 ft 305 kts 40°
2026-04-29 05:59 56.41711 37.44256 11717 ft 305 kts 43°
2026-04-29 06:00 56.43188 37.47021 11857 ft 306 kts 43°
2026-04-29 06:00 56.44669 37.49790 11990 ft 307 kts 43°
2026-04-29 06:00 56.46161 37.52567 12135 ft 308 kts 43°
2026-04-29 06:00 56.47655 37.55340 12271 ft 309 kts 43°
2026-04-29 06:01 56.49160 37.58124 12410 ft 310 kts 42°
2026-04-29 06:01 56.50670 37.60913 12548 ft 310 kts 42°
2026-04-29 06:01 56.52181 37.63707 12685 ft 311 kts 42°
2026-04-29 06:01 56.53695 37.66507 12823 ft 312 kts 42°
2026-04-29 06:02 56.55218 37.69319 12964 ft 313 kts 42°
2026-04-29 06:02 56.56740 37.72138 13099 ft 313 kts 43°
2026-04-29 06:02 56.58268 37.74970 13241 ft 314 kts 43°
2026-04-29 06:02 56.59796 37.77806 13376 ft 315 kts 43°
2026-04-29 06:03 56.61329 37.80658 13520 ft 316 kts 43°
2026-04-29 06:03 56.62866 37.83515 13654 ft 316 kts 42°
2026-04-29 06:03 56.64437 37.86330 13791 ft 317 kts 41°
2026-04-29 06:03 56.66022 37.89116 13936 ft 318 kts 41°
2026-04-29 06:04 56.67612 37.91919 14062 ft 318 kts 41°
2026-04-29 06:04 56.69199 37.94726 14204 ft 318 kts 41°
2026-04-29 06:04 56.70781 37.97544 14340 ft 319 kts 41°
2026-04-29 06:04 56.72343 38.00341 14477 ft 319 kts 41°
2026-04-29 06:05 56.73961 38.03236 14574 ft 328 kts 42°
2026-04-29 06:05 56.75617 38.06197 14727 ft 347 kts 42°
2026-04-29 06:05 56.77375 38.09354 15049 ft 360 kts 42°
2026-04-29 06:05 56.79173 38.12592 15679 ft 362 kts 41°
2026-04-29 06:06 56.80940 38.15786 16675 ft 353 kts 40°
2026-04-29 06:06 56.82676 38.18921 17436 ft 353 kts 40°
2026-04-29 06:06 56.84439 38.22101 17872 ft 360 kts 40°
2026-04-29 06:06 56.86234 38.25340 18397 ft 364 kts 41°
2026-04-29 06:07 56.88061 38.28572 18954 ft 366 kts 38°
2026-04-29 06:07 56.89975 38.31649 19516 ft 368 kts 37°
2026-04-29 06:07 56.91937 38.34679 20015 ft 370 kts 36°
2026-04-29 06:07 56.93920 38.37718 20586 ft 371 kts 36°
2026-04-29 06:08 56.95887 38.40745 21271 ft 369 kts 37°
2026-04-29 06:08 56.97847 38.43781 21845 ft 368 kts 37°
2026-04-29 06:08 56.99778 38.46794 22598 ft 363 kts 37°
2026-04-29 06:08 57.01715 38.49824 22917 ft 369 kts 37°
2026-04-29 06:09 57.03684 38.52914 23232 ft 375 kts 37°
2026-04-29 06:09 57.05674 38.56048 23663 ft 377 kts 37°
2026-04-29 06:09 57.07639 38.59151 24094 ft 379 kts 37°
2026-04-29 06:09 57.09647 38.62326 24448 ft 382 kts 37°
2026-04-29 06:10 57.11674 38.65536 24810 ft 385 kts 37°
2026-04-29 06:10 57.13707 38.68763 25194 ft 387 kts 37°
2026-04-29 06:10 57.15753 38.72015 25510 ft 391 kts 38°
2026-04-29 06:10 57.17828 38.75315 25772 ft 395 kts 38°
2026-04-29 06:11 57.19904 38.78624 26200 ft 395 kts 38°
2026-04-29 06:11 57.21987 38.81950 26472 ft 397 kts 38°
2026-04-29 06:11 57.24071 38.85284 26769 ft 395 kts 38°
2026-04-29 06:11 57.26144 38.88603 27066 ft 393 kts 38°
2026-04-29 06:12 57.28214 38.91922 27350 ft 395 kts 38°
2026-04-29 06:12 57.30294 38.95263 27659 ft 397 kts 38°
2026-04-29 06:12 57.32390 38.98634 27916 ft 400 kts 38°
2026-04-29 06:12 57.34494 39.02025 28166 ft 402 kts 38°
2026-04-29 06:13 57.36607 39.05436 28412 ft 403 kts 38°
2026-04-29 06:13 57.38720 39.08853 28664 ft 403 kts 38°
2026-04-29 06:13 57.40832 39.12274 28913 ft 403 kts 38°
2026-04-29 06:13 57.42944 39.15700 29159 ft 403 kts 38°
2026-04-29 06:14 57.45052 39.19120 29411 ft 402 kts 38°
2026-04-29 06:14 57.47159 39.22547 29655 ft 402 kts 38°
2026-04-29 06:14 57.49256 39.25962 29900 ft 400 kts 39°
2026-04-29 06:14 57.51347 39.29368 30145 ft 399 kts 39°
2026-04-29 06:15 57.53431 39.32768 30393 ft 398 kts 38°
2026-04-29 06:15 57.55508 39.36160 30638 ft 396 kts 38°
2026-04-29 06:15 57.56878 39.38400 30803 ft 396 kts 39°
2026-04-29 06:15 57.58941 39.41776 31044 ft 394 kts 39°
2026-04-29 06:16 57.61002 39.45156 31286 ft 393 kts 39°
2026-04-29 06:16 57.63053 39.48526 31534 ft 392 kts 39°
2026-04-29 06:16 57.65097 39.51890 31782 ft 391 kts 39°
2026-04-29 06:16 57.67134 39.55248 32027 ft 390 kts 39°
2026-04-29 06:17 57.69169 39.58606 32261 ft 391 kts 39°
2026-04-29 06:17 57.71214 39.61984 32488 ft 393 kts 39°
2026-04-29 06:17 57.73268 39.65383 32718 ft 395 kts 39°
2026-04-29 06:17 57.75331 39.68804 32873 ft 398 kts 39°
2026-04-29 06:18 57.77412 39.72259 33005 ft 401 kts 39°
2026-04-29 06:18 57.79502 39.75737 33136 ft 403 kts 39°
2026-04-29 06:18 57.81603 39.79235 33267 ft 405 kts 39°
2026-04-29 06:18 57.83721 39.82768 33383 ft 408 kts 39°
2026-04-29 06:19 57.86043 39.85777 33474 ft 406 kts 21°
2026-04-29 06:19 57.88747 39.87208 33640 ft 404 kts
2026-04-29 06:19 57.91555 39.87197 33740 ft 405 kts 351°
2026-04-29 06:19 57.94326 39.86256 33864 ft 407 kts 349°
2026-04-29 06:20 57.99952 39.84039 33866 ft 418 kts 348°
2026-04-29 06:20 58.05715 39.81789 33872 ft 428 kts 348°
2026-04-29 06:21 58.11610 39.79566 33878 ft 436 kts 349°
2026-04-29 06:21 58.17624 39.77320 33881 ft 444 kts 349°
2026-04-29 06:22 58.23743 39.75028 33878 ft 452 kts 349°
2026-04-29 06:22 58.29923 39.72703 33891 ft 457 kts 349°
2026-04-29 06:23 58.36160 39.70346 33897 ft 459 kts 349°
2026-04-29 06:23 58.42425 39.67949 33904 ft 460 kts 348°
2026-04-29 06:24 58.48746 39.65518 33910 ft 460 kts 348°
2026-04-29 06:24 58.54983 39.63113 33908 ft 460 kts 348°
2026-04-29 06:25 58.61250 39.60688 33911 ft 459 kts 348°
2026-04-29 06:25 58.67500 39.58261 33916 ft 458 kts 348°
2026-04-29 06:26 58.73741 39.55871 33915 ft 457 kts 351°
2026-04-29 06:26 58.80070 39.54748 33924 ft 456 kts 356°
2026-04-29 06:27 58.86400 39.53824 33925 ft 455 kts 355°
2026-04-29 06:27 58.92713 39.52789 33926 ft 455 kts 355°
2026-04-29 06:28 58.99021 39.51736 33927 ft 455 kts 355°
2026-04-29 06:28 59.05292 39.50698 33929 ft 455 kts 355°
2026-04-29 06:29 59.11582 39.49653 33927 ft 455 kts 355°
2026-04-29 06:29 59.17911 39.48597 33926 ft 455 kts 355°
2026-04-29 06:30 59.27382 39.47006 33931 ft 454 kts 355°
2026-04-29 06:31 59.33679 39.45941 33936 ft 454 kts 355°
2026-04-29 06:31 59.39982 39.44873 33935 ft 454 kts 355°
2026-04-29 06:32 59.46280 39.43800 33948 ft 454 kts 355°
2026-04-29 06:32 59.52586 39.42722 33934 ft 455 kts 355°
2026-04-29 06:33 59.58894 39.41639 33932 ft 455 kts 355°
2026-04-29 06:33 59.65162 39.40558 33934 ft 455 kts 355°
2026-04-29 06:34 59.71474 39.39468 33936 ft 455 kts 355°
2026-04-29 06:34 59.77785 39.38373 33936 ft 455 kts 354°
2026-04-29 06:35 59.83972 39.35923 33952 ft 454 kts 341°
2026-04-29 06:35 59.89973 39.31867 33945 ft 455 kts 342°
2026-04-29 06:36 59.96005 39.27960 33931 ft 455 kts 342°
2026-04-29 06:36 60.02032 39.24061 33930 ft 455 kts 342°
2026-04-29 06:37 60.08055 39.20157 33948 ft 455 kts 342°
2026-04-29 06:37 60.14089 39.16222 33942 ft 456 kts 342°
2026-04-29 06:38 60.20118 39.12266 33936 ft 456 kts 342°
2026-04-29 06:38 60.26154 39.08292 33945 ft 456 kts 342°
2026-04-29 06:39 60.32148 39.04334 33945 ft 456 kts 342°
2026-04-29 06:39 60.38176 39.00332 33948 ft 455 kts 342°